Year,Month,Day,Hour,Minute,Value (Times are PST for temperature in C)
2019,03,26,00,00,8.70
2019,03,26,00,01,8.70
2019,03,26,00,02,8.70
2019,03,26,00,03,8.70
2019,03,26,00,04,8.70
2019,03,26,00,05,8.70
2019,03,26,00,06,8.70
2019,03,26,00,07,8.70
2019,03,26,00,08,8.70
2019,03,26,00,09,8.70
2019,03,26,00,10,8.70
2019,03,26,00,11,8.70
2019,03,26,00,12,8.70
2019,03,26,00,13,8.70
2019,03,26,00,14,8.70
2019,03,26,00,15,8.70
2019,03,26,00,16,8.70
2019,03,26,00,17,8.70
2019,03,26,00,18,8.60
2019,03,26,00,19,8.70
2019,03,26,00,20,8.70
2019,03,26,00,21,8.60
2019,03,26,00,22,8.60
2019,03,26,00,23,8.70
2019,03,26,00,24,8.70
2019,03,26,00,25,8.70
2019,03,26,00,26,8.70
2019,03,26,00,27,8.70
2019,03,26,00,28,8.70
2019,03,26,00,29,8.70
2019,03,26,00,30,8.70
2019,03,26,00,31,8.70
2019,03,26,00,32,8.70
2019,03,26,00,33,8.70
2019,03,26,00,34,8.70
2019,03,26,00,35,8.70
2019,03,26,00,36,8.70
2019,03,26,00,37,8.70
2019,03,26,00,38,8.70
2019,03,26,00,39,8.70
2019,03,26,00,40,8.70
2019,03,26,00,41,8.70
2019,03,26,00,42,8.70
2019,03,26,00,43,8.70
2019,03,26,00,44,8.80
2019,03,26,00,45,8.80
2019,03,26,00,46,8.80
2019,03,26,00,47,8.80
2019,03,26,00,48,8.80
2019,03,26,00,49,8.80
2019,03,26,00,50,8.80
2019,03,26,00,51,8.80
2019,03,26,00,52,8.80
2019,03,26,00,53,8.80
2019,03,26,00,54,8.80
2019,03,26,00,55,8.80
2019,03,26,00,56,8.80
2019,03,26,00,57,8.80
2019,03,26,00,58,8.80
2019,03,26,00,59,8.80
2019,03,26,01,00,8.80
2019,03,26,01,01,8.80
2019,03,26,01,02,8.80
2019,03,26,01,03,8.80
2019,03,26,01,04,8.80
2019,03,26,01,05,8.80
2019,03,26,01,06,8.80
2019,03,26,01,07,8.80
2019,03,26,01,08,8.80
2019,03,26,01,09,8.80
2019,03,26,01,10,8.80
2019,03,26,01,11,8.80
2019,03,26,01,12,8.80
2019,03,26,01,13,8.80
2019,03,26,01,14,8.80
2019,03,26,01,15,8.80
2019,03,26,01,16,8.80
2019,03,26,01,17,8.80
2019,03,26,01,18,8.80
2019,03,26,01,19,8.80
2019,03,26,01,20,8.80
2019,03,26,01,21,8.80
2019,03,26,01,22,8.80
2019,03,26,01,23,8.80
2019,03,26,01,24,8.80
2019,03,26,01,25,8.80
2019,03,26,01,26,8.80
2019,03,26,01,27,8.80
2019,03,26,01,28,8.80
2019,03,26,01,29,8.80
2019,03,26,01,30,8.80
2019,03,26,01,31,8.80
2019,03,26,01,32,8.80
2019,03,26,01,33,8.80
2019,03,26,01,34,8.80
2019,03,26,01,35,8.80
2019,03,26,01,36,8.70
2019,03,26,01,37,8.70
2019,03,26,01,38,8.70
2019,03,26,01,39,8.70
2019,03,26,01,40,8.70
2019,03,26,01,41,8.70
2019,03,26,01,42,8.70
2019,03,26,01,43,8.70
2019,03,26,01,44,8.70
2019,03,26,01,45,8.70
2019,03,26,01,46,8.70
2019,03,26,01,47,8.70
2019,03,26,01,48,8.70
2019,03,26,01,49,8.70
2019,03,26,01,50,8.70
2019,03,26,01,51,8.70
2019,03,26,01,52,8.70
2019,03,26,01,53,8.70
2019,03,26,01,54,8.70
2019,03,26,01,55,8.70
2019,03,26,01,56,8.60
2019,03,26,01,57,8.60
2019,03,26,01,58,8.60
2019,03,26,01,59,8.60
2019,03,26,02,00,8.60
2019,03,26,02,01,8.60
2019,03,26,02,02,8.60
2019,03,26,02,03,8.60
2019,03,26,02,04,8.60
2019,03,26,02,05,8.50
2019,03,26,02,06,8.50
2019,03,26,02,07,8.50
2019,03,26,02,08,8.50
2019,03,26,02,09,8.50
2019,03,26,02,10,8.50
2019,03,26,02,11,8.40
2019,03,26,02,12,8.40
2019,03,26,02,13,8.40
2019,03,26,02,14,8.40
2019,03,26,02,15,8.40
2019,03,26,02,16,8.40
2019,03,26,02,17,8.40
2019,03,26,02,18,8.40
2019,03,26,02,19,8.40
2019,03,26,02,20,8.40
2019,03,26,02,21,8.40
2019,03,26,02,22,8.40
2019,03,26,02,23,8.40
2019,03,26,02,24,8.40
2019,03,26,02,25,8.40
2019,03,26,02,26,8.40
2019,03,26,02,27,8.40
2019,03,26,02,28,8.40
2019,03,26,02,29,8.40
2019,03,26,02,30,8.50
2019,03,26,02,31,8.50
2019,03,26,02,32,8.50
2019,03,26,02,33,8.50
2019,03,26,02,34,8.50
2019,03,26,02,35,8.50
2019,03,26,02,36,8.50
2019,03,26,02,37,8.40
2019,03,26,02,38,8.40
2019,03,26,02,39,8.40
2019,03,26,02,40,8.40
2019,03,26,02,41,8.40
2019,03,26,02,42,8.40
2019,03,26,02,43,8.40
2019,03,26,02,44,8.40
2019,03,26,02,45,8.30
2019,03,26,02,46,8.30
2019,03,26,02,47,8.30
2019,03,26,02,48,8.30
2019,03,26,02,49,8.30
2019,03,26,02,50,8.30
2019,03,26,02,51,8.30
2019,03,26,02,52,8.30
2019,03,26,02,53,8.30
2019,03,26,02,54,8.20
2019,03,26,02,55,8.20
2019,03,26,02,56,8.20
2019,03,26,02,57,8.20
2019,03,26,02,58,8.20
2019,03,26,02,59,8.20
2019,03,26,03,00,8.20
2019,03,26,03,01,8.20
2019,03,26,03,02,8.20
2019,03,26,03,03,8.20
2019,03,26,03,04,8.20
2019,03,26,03,05,8.20
2019,03,26,03,06,8.10
2019,03,26,03,07,8.10
2019,03,26,03,08,8.10
2019,03,26,03,09,8.10
2019,03,26,03,10,8.10
2019,03,26,03,11,8.10
2019,03,26,03,12,8.10
2019,03,26,03,13,8.10
2019,03,26,03,14,8.10
2019,03,26,03,15,8.10
2019,03,26,03,16,8.10
2019,03,26,03,17,8.10
2019,03,26,03,18,8.10
2019,03,26,03,19,8.10
2019,03,26,03,20,8.10
2019,03,26,03,21,8.10
2019,03,26,03,22,8.10
2019,03,26,03,23,8.10
2019,03,26,03,24,8.10
2019,03,26,03,25,8.10
2019,03,26,03,26,8.10
2019,03,26,03,27,8.10
2019,03,26,03,28,8.10
2019,03,26,03,29,8.10
2019,03,26,03,30,8.10
2019,03,26,03,31,8.10
2019,03,26,03,32,8.10
2019,03,26,03,33,8.10
2019,03,26,03,34,8.10
2019,03,26,03,35,8.10
2019,03,26,03,36,8.10
2019,03,26,03,37,8.10
2019,03,26,03,38,8.10
2019,03,26,03,39,8.10
2019,03,26,03,40,8.10
2019,03,26,03,41,8.10
2019,03,26,03,42,8.10
2019,03,26,03,43,8.10
2019,03,26,03,44,8.10
2019,03,26,03,45,8.10
2019,03,26,03,46,8.10
2019,03,26,03,47,8.10
2019,03,26,03,48,8.10
2019,03,26,03,49,8.10
2019,03,26,03,50,8.10
2019,03,26,03,51,8.10
2019,03,26,03,52,8.10
2019,03,26,03,53,8.10
2019,03,26,03,54,8.10
2019,03,26,03,55,8.10
2019,03,26,03,56,8.10
2019,03,26,03,57,8.10
2019,03,26,03,58,8.10
2019,03,26,03,59,8.00
2019,03,26,04,00,8.00
2019,03,26,04,01,8.00
2019,03,26,04,02,8.00
2019,03,26,04,03,8.00
2019,03,26,04,04,8.00
2019,03,26,04,05,8.00
2019,03,26,04,06,8.00
2019,03,26,04,07,8.00
2019,03,26,04,08,8.00
2019,03,26,04,09,8.00
2019,03,26,04,10,7.90
2019,03,26,04,11,7.90
2019,03,26,04,12,7.90
2019,03,26,04,13,7.90
2019,03,26,04,14,7.90
2019,03,26,04,15,7.90
2019,03,26,04,16,7.90
2019,03,26,04,17,7.90
2019,03,26,04,18,7.90
2019,03,26,04,19,7.90
2019,03,26,04,20,7.90
2019,03,26,04,21,7.90
2019,03,26,04,22,7.90
2019,03,26,04,23,7.90
2019,03,26,04,24,7.90
2019,03,26,04,25,7.90
2019,03,26,04,26,7.90
2019,03,26,04,27,7.90
2019,03,26,04,28,7.90
2019,03,26,04,29,7.80
2019,03,26,04,30,7.80
2019,03,26,04,31,7.80
2019,03,26,04,32,7.80
2019,03,26,04,33,7.80
2019,03,26,04,34,7.80
2019,03,26,04,35,7.70
2019,03,26,04,36,7.70
2019,03,26,04,37,7.70
2019,03,26,04,38,7.70
2019,03,26,04,39,7.70
2019,03,26,04,40,7.70
2019,03,26,04,41,7.60
2019,03,26,04,42,7.60
2019,03,26,04,43,7.60
2019,03,26,04,44,7.60
2019,03,26,04,45,7.60
2019,03,26,04,46,7.50
2019,03,26,04,47,7.40
2019,03,26,04,48,7.40
2019,03,26,04,49,7.40
2019,03,26,04,50,7.40
2019,03,26,04,51,7.40
2019,03,26,04,52,7.40
2019,03,26,04,53,7.40
2019,03,26,04,54,7.40
2019,03,26,04,55,7.40
2019,03,26,04,56,7.40
2019,03,26,09,10,8.40
2019,03,26,09,11,8.40
2019,03,26,09,12,8.40
2019,03,26,09,13,8.30
2019,03,26,09,14,8.40
2019,03,26,09,15,8.40
2019,03,26,09,16,8.40
2019,03,26,09,17,8.50
2019,03,26,09,18,8.50
2019,03,26,09,19,8.60
2019,03,26,09,20,8.60
2019,03,26,09,21,8.60
2019,03,26,09,22,8.70
2019,03,26,09,23,8.70
2019,03,26,09,24,8.70
2019,03,26,09,25,8.70
2019,03,26,09,26,8.80
2019,03,26,09,27,8.80
2019,03,26,09,28,8.80
2019,03,26,09,29,8.90
2019,03,26,09,30,8.90
2019,03,26,09,31,8.90
2019,03,26,09,32,8.90
2019,03,26,09,33,9.00
2019,03,26,09,34,9.10
2019,03,26,09,35,9.10
2019,03,26,09,36,9.10
2019,03,26,09,37,9.10
2019,03,26,09,38,9.10
2019,03,26,09,39,9.10
2019,03,26,09,40,9.20
2019,03,26,09,41,9.20
2019,03,26,09,42,9.30
2019,03,26,09,43,9.40
2019,03,26,09,44,9.50
2019,03,26,09,45,9.50
2019,03,26,09,46,9.50
2019,03,26,09,47,9.40
2019,03,26,09,48,9.40
2019,03,26,09,49,9.40
2019,03,26,09,50,9.30
2019,03,26,09,51,9.30
2019,03,26,09,52,9.30
2019,03,26,09,53,9.20
2019,03,26,09,54,9.20
2019,03,26,09,55,9.10
2019,03,26,09,56,9.10
2019,03,26,09,57,9.10
2019,03,26,09,58,9.10
2019,03,26,09,59,9.20
2019,03,26,10,00,9.20
2019,03,26,10,01,9.20
2019,03,26,10,02,9.30
2019,03,26,10,03,9.40
2019,03,26,10,04,9.50
2019,03,26,10,05,9.50
2019,03,26,10,06,9.50
2019,03,26,10,07,9.60
2019,03,26,10,08,9.60
2019,03,26,10,09,9.60
2019,03,26,10,10,9.70
2019,03,26,10,11,9.70
2019,03,26,10,12,9.70
2019,03,26,10,13,9.70
2019,03,26,10,14,9.80
2019,03,26,10,15,9.80
2019,03,26,10,16,9.70
2019,03,26,10,17,9.70
2019,03,26,10,18,9.70
2019,03,26,10,19,9.60
2019,03,26,10,20,9.60
2019,03,26,10,21,9.60
2019,03,26,10,22,9.50
2019,03,26,10,23,9.50
2019,03,26,10,24,9.50
2019,03,26,10,25,9.50
2019,03,26,10,26,9.50
2019,03,26,10,27,9.50
2019,03,26,10,28,9.50
2019,03,26,10,29,9.60
2019,03,26,10,30,9.60
2019,03,26,10,31,9.60
2019,03,26,10,32,9.60
2019,03,26,10,33,9.60
2019,03,26,10,34,9.60
2019,03,26,10,35,9.60
2019,03,26,10,36,9.60
2019,03,26,10,37,9.60
2019,03,26,10,38,9.60
2019,03,26,10,39,9.70
2019,03,26,10,40,9.60
2019,03,26,10,41,9.60
2019,03,26,10,42,9.60
2019,03,26,10,43,9.50
2019,03,26,10,44,9.60
2019,03,26,10,45,9.70
2019,03,26,10,46,9.80
2019,03,26,10,47,9.80
2019,03,26,10,48,9.90
2019,03,26,10,49,9.90
2019,03,26,10,50,10.00
2019,03,26,10,51,10.10
2019,03,26,10,52,10.10
2019,03,26,10,53,10.20
2019,03,26,10,54,10.30
2019,03,26,10,55,10.30
2019,03,26,10,56,10.30
2019,03,26,10,57,10.40
2019,03,26,10,58,10.40
2019,03,26,10,59,10.50
2019,03,26,11,00,10.50
2019,03,26,11,01,10.50
2019,03,26,11,02,10.60
2019,03,26,11,03,10.60
2019,03,26,11,04,10.60
2019,03,26,11,05,10.50
2019,03,26,11,06,10.40
2019,03,26,11,07,10.20
2019,03,26,11,08,10.00
2019,03,26,11,09,9.80
2019,03,26,11,10,9.70
2019,03,26,11,11,9.60
2019,03,26,11,12,9.60
2019,03,26,11,13,9.60
2019,03,26,11,14,9.60
2019,03,26,11,15,9.60
2019,03,26,11,16,9.60
2019,03,26,11,17,9.60
2019,03,26,11,18,9.60
2019,03,26,11,19,9.60
2019,03,26,11,20,9.70
2019,03,26,11,21,9.70
2019,03,26,11,22,9.70
2019,03,26,11,23,9.70
2019,03,26,11,24,9.60
2019,03,26,11,25,9.50
2019,03,26,11,26,9.50
2019,03,26,11,27,9.50
2019,03,26,11,28,9.50
2019,03,26,11,29,9.40
2019,03,26,11,30,9.50
2019,03,26,11,31,9.50
2019,03,26,11,32,9.60
2019,03,26,11,33,9.60
2019,03,26,11,34,9.60
2019,03,26,11,35,9.60
2019,03,26,11,36,9.60
2019,03,26,11,37,9.60
2019,03,26,11,38,9.60
2019,03,26,11,39,9.60
2019,03,26,11,40,9.60
2019,03,26,11,41,9.60
2019,03,26,11,42,9.60
2019,03,26,11,43,9.50
2019,03,26,11,44,9.50
2019,03,26,11,45,9.40
2019,03,26,11,46,9.40
2019,03,26,11,47,9.30
2019,03,26,11,48,9.30
2019,03,26,11,49,9.30
2019,03,26,11,50,9.30
2019,03,26,11,51,9.30
2019,03,26,11,52,9.30
2019,03,26,11,53,9.30
2019,03,26,11,54,9.40
2019,03,26,11,55,9.50
2019,03,26,11,56,9.50
2019,03,26,11,57,9.60
2019,03,26,11,58,9.70
2019,03,26,11,59,9.70
2019,03,26,12,00,9.60
2019,03,26,12,01,9.50
2019,03,26,12,02,9.40
2019,03,26,12,03,9.40
2019,03,26,12,04,9.40
2019,03,26,12,05,9.40
2019,03,26,12,06,9.50
2019,03,26,12,07,9.50
2019,03,26,12,08,9.40
2019,03,26,12,09,9.30
2019,03,26,12,10,9.30
2019,03,26,12,11,9.30
2019,03,26,12,12,9.30
2019,03,26,12,13,9.30
2019,03,26,12,14,9.30
2019,03,26,12,15,9.40
2019,03,26,12,16,9.40
2019,03,26,12,17,9.40
2019,03,26,12,18,9.50
2019,03,26,12,19,9.50
2019,03,26,12,20,9.50
2019,03,26,12,21,9.50
2019,03,26,12,22,9.50
2019,03,26,12,23,9.60
2019,03,26,12,24,9.60
2019,03,26,12,25,9.60
2019,03,26,12,26,9.60
2019,03,26,12,27,9.60
2019,03,26,12,28,9.50
2019,03,26,12,29,9.50
2019,03,26,12,30,9.40
2019,03,26,12,31,9.50
2019,03,26,12,32,9.60
2019,03,26,12,33,9.60
2019,03,26,12,34,9.60
2019,03,26,12,35,9.50
2019,03,26,12,36,9.50
2019,03,26,12,37,9.60
2019,03,26,12,38,9.60
2019,03,26,12,39,9.60
2019,03,26,12,40,9.60
2019,03,26,12,41,9.60
2019,03,26,12,42,9.70
2019,03,26,12,43,9.80
2019,03,26,12,44,9.80
2019,03,26,12,45,9.80
2019,03,26,12,46,9.90
2019,03,26,12,47,9.90
2019,03,26,12,48,9.90
2019,03,26,12,49,9.80
2019,03,26,12,50,9.80
2019,03,26,12,51,9.80
2019,03,26,12,52,9.80
2019,03,26,12,53,9.90
2019,03,26,12,54,9.90
2019,03,26,12,55,9.90
2019,03,26,12,56,9.90
2019,03,26,12,57,9.90
2019,03,26,12,58,9.90
2019,03,26,12,59,9.90
2019,03,26,13,00,10.00
2019,03,26,13,01,10.00
2019,03,26,13,02,10.00
2019,03,26,13,03,10.00
2019,03,26,13,04,10.00
2019,03,26,13,05,9.90
2019,03,26,13,06,9.90
2019,03,26,13,07,9.90
2019,03,26,13,08,10.00
2019,03,26,13,09,10.00
2019,03,26,13,10,10.10
2019,03,26,13,11,10.10
2019,03,26,13,12,10.10
2019,03,26,13,13,10.10
2019,03,26,13,14,10.10
2019,03,26,13,15,10.20
2019,03,26,13,16,10.20
2019,03,26,13,17,10.30
2019,03,26,13,18,10.40
2019,03,26,13,19,10.50
2019,03,26,13,20,10.50
2019,03,26,13,21,10.50
2019,03,26,13,22,10.40
2019,03,26,13,23,10.40
2019,03,26,13,24,10.30
2019,03,26,13,25,10.30
2019,03,26,13,26,10.30
2019,03,26,13,27,10.40
2019,03,26,13,28,10.40
2019,03,26,13,29,10.50
2019,03,26,13,30,10.60
2019,03,26,13,31,10.70
2019,03,26,13,32,10.70
2019,03,26,13,33,10.80
2019,03,26,13,34,10.70
2019,03,26,13,35,10.60
2019,03,26,13,36,10.50
2019,03,26,13,37,10.40
2019,03,26,13,38,10.40
2019,03,26,13,39,10.50
2019,03,26,13,40,10.60
2019,03,26,13,41,10.70
2019,03,26,13,42,10.70
2019,03,26,13,43,10.70
2019,03,26,13,44,10.70
2019,03,26,13,45,10.80
2019,03,26,13,46,10.90
2019,03,26,13,47,10.90
2019,03,26,13,48,11.00
2019,03,26,13,49,11.10
2019,03,26,13,50,11.10
2019,03,26,13,51,11.10
2019,03,26,13,52,11.10
2019,03,26,13,53,11.10
2019,03,26,13,54,11.20
2019,03,26,13,55,11.30
2019,03,26,13,56,11.30
2019,03,26,13,57,11.30
2019,03,26,13,58,11.30
2019,03,26,13,59,11.30
2019,03,26,14,00,11.30
2019,03,26,14,01,11.30
2019,03,26,14,02,11.20
2019,03,26,14,03,11.20
2019,03,26,14,04,11.10
2019,03,26,14,05,11.00
2019,03,26,14,06,11.00
2019,03,26,14,07,11.00
2019,03,26,14,08,11.00
2019,03,26,14,09,11.00
2019,03,26,14,10,11.00
2019,03,26,14,11,11.00
2019,03,26,14,12,11.00
2019,03,26,14,13,11.10
2019,03,26,14,14,11.10
2019,03,26,14,15,11.20
2019,03,26,14,16,11.20
2019,03,26,14,17,11.20
2019,03,26,14,18,11.30
2019,03,26,14,19,11.30
2019,03,26,14,20,11.30
2019,03,26,14,21,11.20
2019,03,26,14,22,11.10
2019,03,26,14,23,11.10
2019,03,26,14,24,11.20
2019,03,26,14,25,11.10
2019,03,26,14,26,11.10
2019,03,26,14,27,11.10
2019,03,26,14,28,11.10
2019,03,26,14,29,11.10
2019,03,26,14,30,11.10
2019,03,26,14,31,11.20
2019,03,26,14,32,11.20
2019,03,26,14,33,11.20
2019,03,26,14,34,11.30
2019,03,26,14,35,11.30
2019,03,26,14,36,11.30
2019,03,26,14,37,11.30
2019,03,26,14,38,11.40
2019,03,26,14,39,11.40
2019,03,26,14,40,11.40
2019,03,26,14,41,11.40
2019,03,26,14,42,11.40
2019,03,26,14,43,11.40
2019,03,26,14,44,11.30
2019,03,26,14,45,11.30
2019,03,26,14,46,11.30
2019,03,26,14,47,11.30
2019,03,26,14,48,11.30
2019,03,26,14,49,11.30
2019,03,26,14,50,11.30
2019,03,26,14,51,11.40
2019,03,26,14,52,11.40
2019,03,26,14,53,11.40
2019,03,26,14,54,11.40
2019,03,26,14,55,11.50
2019,03,26,14,56,11.60
2019,03,26,14,57,11.60
2019,03,26,14,58,11.60
2019,03,26,14,59,11.70
2019,03,26,15,00,11.60
2019,03,26,15,01,11.60
2019,03,26,15,02,11.60
2019,03,26,15,03,11.50
2019,03,26,15,04,11.50
2019,03,26,15,05,11.50
2019,03,26,15,06,11.40
2019,03,26,15,07,11.40
2019,03,26,15,08,11.40
2019,03,26,15,09,11.30
2019,03,26,15,10,11.20
2019,03,26,15,11,11.20
2019,03,26,15,12,11.20
2019,03,26,15,13,11.20
2019,03,26,15,14,11.20
2019,03,26,15,15,11.20
2019,03,26,15,16,11.20
2019,03,26,15,17,11.20
2019,03,26,15,18,11.20
2019,03,26,15,19,11.30
2019,03,26,15,20,11.30
2019,03,26,15,21,11.40
2019,03,26,15,22,11.50
2019,03,26,15,23,11.50
2019,03,26,15,24,11.50
2019,03,26,15,25,11.50
2019,03,26,15,26,11.60
2019,03,26,15,27,11.70
2019,03,26,15,28,11.70
2019,03,26,15,29,11.70
2019,03,26,15,30,11.80
2019,03,26,15,31,11.80
2019,03,26,15,32,11.80
2019,03,26,15,33,11.90
2019,03,26,15,34,11.90
2019,03,26,15,35,12.00
2019,03,26,15,36,12.00
2019,03,26,15,37,12.10
2019,03,26,15,38,12.00
2019,03,26,15,39,12.00
2019,03,26,15,40,12.10
2019,03,26,15,41,12.00
2019,03,26,15,42,12.00
2019,03,26,15,43,12.00
2019,03,26,15,44,12.10
2019,03,26,15,45,12.10
2019,03,26,15,46,12.10
2019,03,26,15,47,12.10
2019,03,26,15,48,11.90
2019,03,26,15,49,11.80
2019,03,26,15,50,11.80
2019,03,26,15,51,11.80
2019,03,26,15,52,11.90
2019,03,26,15,53,11.90
2019,03,26,15,54,11.80
2019,03,26,15,55,11.80
2019,03,26,15,56,11.80
2019,03,26,15,57,11.80
2019,03,26,15,58,11.80
2019,03,26,15,59,11.80
2019,03,26,16,00,11.80
2019,03,26,16,01,11.80
2019,03,26,16,02,11.80
2019,03,26,16,03,11.70
2019,03,26,16,04,11.70
2019,03,26,16,05,11.70
2019,03,26,16,06,11.60
2019,03,26,16,07,11.60
2019,03,26,16,08,11.60
2019,03,26,16,09,11.60
2019,03,26,16,10,11.70
2019,03,26,16,11,11.70
2019,03,26,16,12,11.70
2019,03,26,16,13,11.70
2019,03,26,16,14,11.80
2019,03,26,16,15,11.90
2019,03,26,16,16,11.90
2019,03,26,16,17,11.90
2019,03,26,16,18,11.90
2019,03,26,16,19,11.90
2019,03,26,16,20,11.90
2019,03,26,16,21,11.90
2019,03,26,16,22,11.90
2019,03,26,16,23,11.90
2019,03,26,16,24,11.90
2019,03,26,16,25,11.90
2019,03,26,16,26,11.90
2019,03,26,16,27,11.80
2019,03,26,16,28,11.70
2019,03,26,16,29,11.70
2019,03,26,16,30,11.70
2019,03,26,16,31,11.70
2019,03,26,16,32,11.80
2019,03,26,16,33,11.80
2019,03,26,16,34,11.90
2019,03,26,16,35,11.90
2019,03,26,16,36,11.90
2019,03,26,16,37,11.90
2019,03,26,16,38,11.90
2019,03,26,16,39,11.80
2019,03,26,16,40,11.80
2019,03,26,16,41,11.90
2019,03,26,16,42,11.90
2019,03,26,16,43,12.00
2019,03,26,16,44,12.00
2019,03,26,16,45,12.00
2019,03,26,16,46,12.10
2019,03,26,16,47,12.10
2019,03,26,16,48,12.20
2019,03,26,16,49,12.20
2019,03,26,16,50,12.20
2019,03,26,16,51,12.20
2019,03,26,16,52,12.30
2019,03,26,16,53,12.30
2019,03,26,16,54,12.30
2019,03,26,16,55,12.30
2019,03,26,16,56,12.30
2019,03,26,16,57,12.30
2019,03,26,16,58,12.20
2019,03,26,16,59,12.20
2019,03,26,17,00,12.20
2019,03,26,17,01,12.10
2019,03,26,17,02,12.10
2019,03,26,17,03,12.10
2019,03,26,17,04,12.00
2019,03,26,17,05,12.00
2019,03,26,17,06,12.00
2019,03,26,17,07,11.90
2019,03,26,17,08,11.90
2019,03,26,17,09,11.90
2019,03,26,17,10,11.90
2019,03,26,17,11,12.00
2019,03,26,17,12,11.90
2019,03,26,17,13,11.90
2019,03,26,17,14,11.90
2019,03,26,17,15,11.90
2019,03,26,17,16,11.90
2019,03,26,17,17,11.90
2019,03,26,17,18,11.80
2019,03,26,17,19,11.80
2019,03,26,17,20,11.80
2019,03,26,17,21,11.90
2019,03,26,17,22,11.90
2019,03,26,17,23,12.00
2019,03,26,17,24,12.00
2019,03,26,17,25,12.10
2019,03,26,17,26,12.10
2019,03,26,17,27,12.00
2019,03,26,17,28,12.00
2019,03,26,17,29,11.90
2019,03,26,17,30,11.90
2019,03,26,17,31,12.00
2019,03,26,17,32,12.00
2019,03,26,17,33,12.00
2019,03,26,17,34,12.00
2019,03,26,17,35,12.00
2019,03,26,17,36,11.90
2019,03,26,17,37,11.90
2019,03,26,17,38,12.00
2019,03,26,17,39,12.00
2019,03,26,17,40,12.10
2019,03,26,17,41,12.10
2019,03,26,17,42,12.10
2019,03,26,17,43,12.10
2019,03,26,17,44,12.20
2019,03,26,17,45,12.20
2019,03,26,17,46,12.20
2019,03,26,17,47,12.30
2019,03,26,17,48,12.30
2019,03,26,17,49,12.30
2019,03,26,17,50,12.30
2019,03,26,17,51,12.30
2019,03,26,17,52,12.30
2019,03,26,17,53,12.30
2019,03,26,17,54,12.20
2019,03,26,17,55,12.20
2019,03,26,17,56,12.30
2019,03,26,17,57,12.30
2019,03,26,17,58,12.30
2019,03,26,17,59,12.30
2019,03,26,18,00,12.30
2019,03,26,18,01,12.30
2019,03,26,18,02,12.30
2019,03,26,18,03,12.40
2019,03,26,18,04,12.40
2019,03,26,18,05,12.40
2019,03,26,18,06,12.40
2019,03,26,18,07,12.40
2019,03,26,18,08,12.40
2019,03,26,18,09,12.40
2019,03,26,18,10,12.50
2019,03,26,18,11,12.50
2019,03,26,18,12,12.50
2019,03,26,18,13,12.50
2019,03,26,18,14,12.50
2019,03,26,18,15,12.50
2019,03,26,18,16,12.40
2019,03,26,18,17,12.40
2019,03,26,18,18,12.30
2019,03,26,18,19,12.30
2019,03,26,18,20,12.30
2019,03,26,18,21,12.30
2019,03,26,18,22,12.30
2019,03,26,18,23,12.30
2019,03,26,18,24,12.30
2019,03,26,18,25,12.30
2019,03,26,18,26,12.30
2019,03,26,18,27,12.30
2019,03,26,18,28,12.30
2019,03,26,18,29,12.30
2019,03,26,18,30,12.30
2019,03,26,18,31,12.30
2019,03,26,18,32,12.30
2019,03,26,18,33,12.30
2019,03,26,18,34,12.30
2019,03,26,18,35,12.30
2019,03,26,18,36,12.30
2019,03,26,18,37,12.30
2019,03,26,18,38,12.30
2019,03,26,18,39,12.20
2019,03,26,18,40,12.20
2019,03,26,18,41,12.20
2019,03,26,18,42,12.20
2019,03,26,18,43,12.20
2019,03,26,18,44,12.20
2019,03,26,18,45,12.20
2019,03,26,18,46,12.30
2019,03,26,18,47,12.30
2019,03,26,18,48,12.30
2019,03,26,18,49,12.30
2019,03,26,18,50,12.30
2019,03,26,18,51,12.30
2019,03,26,18,52,12.30
2019,03,26,18,53,12.30
2019,03,26,18,54,12.30
2019,03,26,18,55,12.30
2019,03,26,18,56,12.30
2019,03,26,18,57,12.30
2019,03,26,18,58,12.30
2019,03,26,18,59,12.30
2019,03,26,19,00,12.20
2019,03,26,19,01,12.20
2019,03,26,19,02,12.20
2019,03,26,19,03,12.20
2019,03,26,19,04,12.20
2019,03,26,19,05,12.20
2019,03,26,19,06,12.20
2019,03,26,19,07,12.10
2019,03,26,19,08,12.10
2019,03,26,19,09,12.10
2019,03,26,19,10,12.10
2019,03,26,19,11,12.10
2019,03,26,19,12,12.10
2019,03,26,19,13,12.10
2019,03,26,19,14,12.00
2019,03,26,19,15,12.00
2019,03,26,19,16,12.00
2019,03,26,19,17,12.00
2019,03,26,19,18,12.00
2019,03,26,19,19,11.90
2019,03,26,19,20,11.90
2019,03,26,19,21,11.90
2019,03,26,19,22,11.90
2019,03,26,19,23,11.90
2019,03,26,19,24,11.90
2019,03,26,19,25,11.80
2019,03,26,19,26,11.80
2019,03,26,19,27,11.80
2019,03,26,19,28,11.80
2019,03,26,19,29,11.80
2019,03,26,19,30,11.80
2019,03,26,19,31,11.70
2019,03,26,19,32,11.70
2019,03,26,19,33,11.70
2019,03,26,19,34,11.60
2019,03,26,19,35,11.60
2019,03,26,19,36,11.60
2019,03,26,19,37,11.50
2019,03,26,19,38,11.50
2019,03,26,19,39,11.40
2019,03,26,19,40,11.40
2019,03,26,19,41,11.40
2019,03,26,19,42,11.30
2019,03,26,19,43,11.30
2019,03,26,19,44,11.20
2019,03,26,19,45,11.20
2019,03,26,19,46,11.20
2019,03,26,19,47,11.10
2019,03,26,19,48,11.10
2019,03,26,19,49,11.10
2019,03,26,19,50,11.10
2019,03,26,19,51,11.00
2019,03,26,19,52,11.00
2019,03,26,19,53,10.90
2019,03,26,19,54,10.90
2019,03,26,19,55,10.90
2019,03,26,19,56,10.90
2019,03,26,19,57,10.80
2019,03,26,19,58,10.80
2019,03,26,19,59,10.80
2019,03,26,20,00,10.80
2019,03,26,20,01,10.80
2019,03,26,20,02,10.80
2019,03,26,20,03,10.70
2019,03,26,20,04,10.70
2019,03,26,20,05,10.70
2019,03,26,20,06,10.70
2019,03,26,20,07,10.60
2019,03,26,20,08,10.60
2019,03,26,20,09,10.60
2019,03,26,20,10,10.50
2019,03,26,20,11,10.50
2019,03,26,20,12,10.50
2019,03,26,20,13,10.40
2019,03,26,20,14,10.40
2019,03,26,20,15,10.30
2019,03,26,20,16,10.30
2019,03,26,20,17,10.30
2019,03,26,20,18,10.20
2019,03,26,20,19,10.20
2019,03,26,20,20,10.20
2019,03,26,20,21,10.20
2019,03,26,20,22,10.10
2019,03,26,20,23,10.10
2019,03,26,20,24,10.10
2019,03,26,20,25,10.10
2019,03,26,20,26,10.10
2019,03,26,20,27,10.10
2019,03,26,20,28,10.10
2019,03,26,20,29,10.10
2019,03,26,20,30,10.10
2019,03,26,20,31,10.10
2019,03,26,20,32,10.10
2019,03,26,20,33,10.10
2019,03,26,20,34,10.10
2019,03,26,20,35,10.10
2019,03,26,20,36,10.00
2019,03,26,20,37,10.00
2019,03,26,20,38,10.00
2019,03,26,20,39,10.00
2019,03,26,20,40,9.90
2019,03,26,20,41,9.90
2019,03,26,20,42,9.90
2019,03,26,20,43,9.90
2019,03,26,20,44,9.90
2019,03,26,20,45,9.80
2019,03,26,20,46,9.80
2019,03,26,20,47,9.80
2019,03,26,20,48,9.80
2019,03,26,20,49,9.80
2019,03,26,20,50,9.80
2019,03,26,20,51,9.80
2019,03,26,20,52,9.80
2019,03,26,20,53,9.70
2019,03,26,20,54,9.70
2019,03,26,20,55,9.70
2019,03,26,20,56,9.70
2019,03,26,20,57,9.70
2019,03,26,20,58,9.60
2019,03,26,20,59,9.60
2019,03,26,21,00,9.60
2019,03,26,21,01,9.50
2019,03,26,21,02,9.50
2019,03,26,21,03,9.40
2019,03,26,21,04,9.40
2019,03,26,21,05,9.30
2019,03,26,21,06,9.30
2019,03,26,21,07,9.30
2019,03,26,21,08,9.20
2019,03,26,21,09,9.20
2019,03,26,21,10,9.20
2019,03,26,21,11,9.20
2019,03,26,21,12,9.10
2019,03,26,21,13,9.10
2019,03,26,21,14,9.10
2019,03,26,21,15,9.10
2019,03,26,21,16,9.00
2019,03,26,21,17,9.00
2019,03,26,21,18,9.00
2019,03,26,21,19,9.00
2019,03,26,21,20,9.00
2019,03,26,21,21,9.00
2019,03,26,21,22,8.90
2019,03,26,21,23,8.90
2019,03,26,21,24,8.90
2019,03,26,21,25,8.80
2019,03,26,21,26,8.80
2019,03,26,21,27,8.80
2019,03,26,21,28,8.70
2019,03,26,21,29,8.70
2019,03,26,21,30,8.60
2019,03,26,21,31,8.60
2019,03,26,21,32,8.60
2019,03,26,21,33,8.60
2019,03,26,21,34,8.60
2019,03,26,21,35,8.50
2019,03,26,21,36,8.50
2019,03,26,21,37,8.50
2019,03,26,21,38,8.40
2019,03,26,21,39,8.40
2019,03,26,21,40,8.40
2019,03,26,21,41,8.40
2019,03,26,21,42,8.30
2019,03,26,21,43,8.30
2019,03,26,21,44,8.30
2019,03,26,21,45,8.30
2019,03,26,21,46,8.30
2019,03,26,21,47,8.30
2019,03,26,21,48,8.30
2019,03,26,21,49,8.30
2019,03,26,21,50,8.20
2019,03,26,21,51,8.20
2019,03,26,21,52,8.20
2019,03,26,21,53,8.20
2019,03,26,21,54,8.20
2019,03,26,21,55,8.20
2019,03,26,21,56,8.20
2019,03,26,21,57,8.20
2019,03,26,21,58,8.20